Powrót do katalogu

STARLINK-35168

AktywnyŁącznośćVLEO
NORAD 65509·PAYLOAD·🇺🇸 United States

Wystrzelony Sep 5, 2025 z Cape Canaveral Space Force Station

Loading…

Następne Przeloty (najbliższe 24 godziny)

TLE

ŚwieżeSource: CelesTrak SupGP

Epoka: Sep 14, 2026, 20:40 UTC

1 65509C 25198T   26257.86159722 -.00046778  00000+0 -13822-2 0  2570
2 65509  53.1569 108.2109 0001222  92.8658 172.2389 15.34410686    13

Śledź STARLINK-35168 w czasie rzeczywistym z AllMySat

Download on the App Store